When you browse on this site, cookies collect data to enhance your experience and personalize the content and advertising you see.
Visit our Privacy Policy to learn more. By continuing to use the site, you agree to this use of cookies and data.
EN

Hourly Weather Laski

Today, 25 September, Friday

Time Temperature Precipitation Wind Pressure Humidity
00:00 +16°C° 0 mm 2 mps 745 mmHg 85%
01:00 +16°C° 0 mm 2 mps 745 mmHg 86%
02:00 +15°C° 0.1 mm 2 mps 745 mmHg 87%
03:00 +15°C° 0.1 mm 2 mps 745 mmHg 89%
04:00 +15°C° 0.1 mm 2 mps 745 mmHg 90%
05:00 +16°C° 0.2 mm 3 mps 744 mmHg 88%
06:00 +16°C° 0.2 mm 3 mps 744 mmHg 87%
07:00 +17°C° 0 mm 3 mps 744 mmHg 82%
08:00 +18°C° 0 mm 4 mps 744 mmHg 76%
09:00 +20°C° 0 mm 5 mps 743 mmHg 69%
10:00 +22°C° 0 mm 5 mps 743 mmHg 62%
11:00 +23°C° 0 mm 6 mps 742 mmHg 59%
12:00 +24°C° 0 mm 6 mps 742 mmHg 55%
13:00 +24°C° 0 mm 6 mps 741 mmHg 55%
14:00 +24°C° 0 mm 6 mps 741 mmHg 58%
15:00 +23°C° 0 mm 5 mps 740 mmHg 60%
16:00 +23°C° 0 mm 5 mps 740 mmHg 63%
17:00 +22°C° 0.1 mm 5 mps 740 mmHg 64%
18:00 +21°C° 0.1 mm 6 mps 740 mmHg 66%
19:00 +21°C° 0.1 mm 6 mps 739 mmHg 67%
20:00 +20°C° 0.3 mm 6 mps 739 mmHg 73%
21:00 +19°C° 0.3 mm 5 mps 739 mmHg 78%
22:00 +18°C° 0.3 mm 4 mps 739 mmHg 83%
23:00 +18°C° 0 mm 4 mps 739 mmHg 82%

Tomorrow, 26 September, Saturday

Time Temperature Precipitation Wind Pressure Humidity
00:00 +18°C° 0 mm 4 mps 739 mmHg 80%
01:00 +18°C° 0 mm 4 mps 738 mmHg 79%
02:00 +18°C° 0 mm 4 mps 738 mmHg 79%
03:00 +18°C° 0 mm 4 mps 738 mmHg 78%
04:00 +16°C° 0 mm 5 mps 738 mmHg 78%
05:00 +16°C° 0 mm 5 mps 738 mmHg 78%
06:00 +16°C° 0 mm 5 mps 738 mmHg 77%
07:00 +17°C° 0 mm 5 mps 737 mmHg 77%
08:00 +19°C° 0 mm 6 mps 738 mmHg 72%
09:00 +20°C° 0 mm 7 mps 738 mmHg 68%
10:00 +21°C° 0 mm 8 mps 738 mmHg 63%
11:00 +22°C° 0 mm 8 mps 738 mmHg 61%
12:00 +23°C° 0 mm 8 mps 738 mmHg 59%
13:00 +24°C° 0 mm 8 mps 738 mmHg 57%
14:00 +23°C° 0.1 mm 7 mps 738 mmHg 59%
15:00 +23°C° 0.1 mm 6 mps 738 mmHg 61%
16:00 +23°C° 0.1 mm 5 mps 738 mmHg 63%
17:00 +21°C° 1.1 mm 5 mps 738 mmHg 69%
18:00 +20°C° 1.1 mm 4 mps 739 mmHg 76%
19:00 +19°C° 1.1 mm 4 mps 739 mmHg 82%
20:00 +19°C° 0.6 mm 4 mps 739 mmHg 81%
21:00 +19°C° 0.6 mm 3 mps 739 mmHg 81%
22:00 +19°C° 0.6 mm 3 mps 739 mmHg 80%
23:00 +19°C° 0.1 mm 4 mps 739 mmHg 77%

Day after tomorrow, 27 September, Sunday

Time Temperature Precipitation Wind Pressure Humidity
00:00 +19°C° 0.1 mm 5 mps 739 mmHg 73%
01:00 +19°C° 0.1 mm 6 mps 739 mmHg 70%
02:00 +19°C° 0 mm 6 mps 739 mmHg 70%
03:00 +19°C° 0 mm 6 mps 739 mmHg 70%
04:00 +19°C° 0 mm 6 mps 739 mmHg 70%
05:00 +18°C° 0.2 mm 7 mps 739 mmHg 71%
06:00 +18°C° 0.2 mm 7 mps 739 mmHg 71%
07:00 +18°C° 0.2 mm 8 mps 739 mmHg 71%
08:00 +18°C° 0.1 mm 8 mps 739 mmHg 73%
09:00 +18°C° 0.1 mm 9 mps 739 mmHg 76%
10:00 +17°C° 0.1 mm 9 mps 739 mmHg 78%
11:00 +17°C° 0.4 mm 9 mps 740 mmHg 77%
12:00 +17°C° 0.4 mm 8 mps 740 mmHg 76%
13:00 +17°C° 0.4 mm 8 mps 740 mmHg 75%
14:00 +15°C° 0.8 mm 7 mps 741 mmHg 81%
15:00 +13°C° 0.8 mm 6 mps 741 mmHg 86%
16:00 +10°C° 0.8 mm 6 mps 742 mmHg 91%
17:00 +10°C° 0.2 mm 6 mps 743 mmHg 90%
18:00 +9°C° 0.2 mm 6 mps 744 mmHg 88%
19:00 +9°C° 0.2 mm 6 mps 745 mmHg 86%
20:00 +9°C° 0 mm 5 mps 745 mmHg 86%
21:00 +9°C° 0 mm 5 mps 746 mmHg 87%
22:00 +10°C° 0 mm 4 mps 747 mmHg 87%
23:00 +10°C° 0 mm 4 mps 747 mmHg 87%

28 September, Monday

Time Temperature Precipitation Wind Pressure Humidity
00:00 +10°C° 0 mm 4 mps 748 mmHg 88%
01:00 +8°C° 0 mm 4 mps 748 mmHg 89%
02:00 +8°C° 0 mm 4 mps 749 mmHg 89%
03:00 +8°C° 0 mm 4 mps 749 mmHg 90%
04:00 +7°C° 0 mm 4 mps 749 mmHg 90%
05:00 +8°C° 0 mm 4 mps 750 mmHg 88%
06:00 +8°C° 0 mm 4 mps 750 mmHg 86%
07:00 +8°C° 0 mm 4 mps 750 mmHg 84%
08:00 +11°C° 0 mm 4 mps 750 mmHg 76%
09:00 +13°C° 0 mm 4 mps 751 mmHg 69%
10:00 +15°C° 0 mm 4 mps 751 mmHg 61%
11:00 +15°C° 0 mm 4 mps 751 mmHg 59%
12:00 +17°C° 0 mm 4 mps 751 mmHg 56%
13:00 +18°C° 0 mm 4 mps 751 mmHg 53%
14:00 +17°C° 0 mm 4 mps 751 mmHg 55%
15:00 +17°C° 0 mm 4 mps 751 mmHg 58%
16:00 +16°C° 0 mm 3 mps 750 mmHg 60%
17:00 +15°C° 0 mm 4 mps 750 mmHg 62%
18:00 +14°C° 0 mm 4 mps 750 mmHg 65%
19:00 +14°C° 0 mm 4 mps 750 mmHg 67%
20:00 +14°C° 0 mm 4 mps 750 mmHg 71%
21:00 +14°C° 0 mm 4 mps 750 mmHg 74%
22:00 +14°C° 0 mm 4 mps 749 mmHg 78%
23:00 +14°C° 0.7 mm 4 mps 749 mmHg 82%

29 September, Tuesday

Time Temperature Precipitation Wind Pressure Humidity
00:00 +13°C° 0.7 mm 5 mps 749 mmHg 86%
01:00 +13°C° 0.7 mm 6 mps 748 mmHg 91%
02:00 +13°C° 0.5 mm 5 mps 748 mmHg 91%
03:00 +13°C° 0.5 mm 5 mps 748 mmHg 91%
04:00 +13°C° 0.5 mm 5 mps 747 mmHg 91%
05:00 +13°C° 0.1 mm 5 mps 747 mmHg 91%
06:00 +13°C° 0.1 mm 5 mps 747 mmHg 91%
07:00 +13°C° 0.1 mm 5 mps 747 mmHg 90%
08:00 +13°C° 0.7 mm 5 mps 747 mmHg 91%
09:00 +12°C° 0.7 mm 5 mps 747 mmHg 91%
10:00 +12°C° 0.7 mm 5 mps 747 mmHg 91%
11:00 +12°C° 0.5 mm 5 mps 747 mmHg 90%
12:00 +13°C° 0.5 mm 4 mps 747 mmHg 88%
13:00 +13°C° 0.5 mm 4 mps 747 mmHg 87%
14:00 +13°C° 0.3 mm 4 mps 747 mmHg 88%
15:00 +13°C° 0.3 mm 4 mps 747 mmHg 89%
16:00 +13°C° 0.3 mm 4 mps 747 mmHg 90%
17:00 +13°C° 0.4 mm 4 mps 747 mmHg 89%
18:00 +13°C° 0.4 mm 5 mps 747 mmHg 89%
19:00 +13°C° 0.4 mm 5 mps 747 mmHg 89%
20:00 +13°C° 0.4 mm 5 mps 747 mmHg 89%
21:00 +13°C° 0.4 mm 5 mps 746 mmHg 89%
22:00 +13°C° 0.4 mm 5 mps 746 mmHg 89%
23:00 +13°C° 0.2 mm 5 mps 746 mmHg 90%

30 September, Wednesday

Time Temperature Precipitation Wind Pressure Humidity
00:00 +13°C° 0.2 mm 5 mps 745 mmHg 91%
01:00 +14°C° 0.2 mm 5 mps 745 mmHg 91%
02:00 +13°C° 0.4 mm 6 mps 745 mmHg 92%
03:00 +13°C° 0.4 mm 6 mps 745 mmHg 92%
04:00 +13°C° 0.4 mm 6 mps 745 mmHg 92%
05:00 +13°C° 0.4 mm 6 mps 745 mmHg 92%
06:00 +13°C° 0.4 mm 5 mps 745 mmHg 92%
07:00 +13°C° 0.4 mm 5 mps 745 mmHg 92%
08:00 +13°C° 0.6 mm 5 mps 745 mmHg 91%
09:00 +12°C° 0.6 mm 5 mps 745 mmHg 91%
10:00 +12°C° 0.6 mm 5 mps 745 mmHg 91%
11:00 +12°C° 1 mm 5 mps 745 mmHg 91%
12:00 +12°C° 1 mm 5 mps 745 mmHg 91%
13:00 +12°C° 1 mm 5 mps 745 mmHg 91%
14:00 +12°C° 1.5 mm 5 mps 745 mmHg 92%
15:00 +12°C° 1.5 mm 5 mps 745 mmHg 92%
16:00 +10°C° 1.5 mm 5 mps 745 mmHg 93%
17:00 +10°C° 0.3 mm 5 mps 745 mmHg 92%
18:00 +10°C° 0.3 mm 5 mps 745 mmHg 92%
19:00 +10°C° 0.3 mm 5 mps 745 mmHg 92%
20:00 +11°C° 0 mm 4 mps 746 mmHg 92%
21:00 +11°C° 0 mm 4 mps 746 mmHg 93%
22:00 +11°C° 0 mm 3 mps 746 mmHg 94%
23:00 +11°C° 0 mm 3 mps 746 mmHg 95%
Show more